Simultaneous Nadir Overpasses (SNOs) Predictions

Prediction of SNOs between NPP and TERRA Satellite Orbit:

Table of predicted SNOs for the next 14.0 days since TLE Epoch: 11/20/2016
Index Date (NPP) Time (NPP) Lat,Lon (NPP) SZA (NPP ) Date (TERRA) Time (TERRA) Lat,Lon (TERRA) SZA (TERRA ) Distance(km) Time Diff (sec)
1 11/21/2016 02:06:16 68.90, 146.49 88.77 11/21/2016 02:07:26 68.80, 147.46 88.69 40.49 70
2 11/21/2016 02:56:50 -68.38, -45.50 91.74 11/21/2016 02:57:02 -68.36, -45.46 91.77 3.09 12
3 11/21/2016 03:47:33 68.21, 122.02 88.10 11/21/2016 03:46:30 68.20, 121.99 88.08 2.08 63
4 11/23/2016 18:23:01 68.42, -97.10 88.86 11/23/2016 18:24:01 68.45, -97.10 88.89 3.32 60
5 11/23/2016 19:13:43 -68.32, 70.34 91.24 11/23/2016 19:13:31 -68.34, 70.40 91.22 3.02 12
6 11/23/2016 20:04:17 67.67,-121.54 88.13 11/23/2016 20:03:07 67.73,-122.68 88.17 48.52 70
7 11/26/2016 10:39:55 68.37, 18.73 89.32 11/26/2016 10:40:32 68.36, 18.67 89.32 2.52 37
8 11/26/2016 11:30:37 -68.26,-173.82 90.78 11/26/2016 11:30:02 -68.26,-173.83 90.79 1.02 35
9 11/29/2016 02:06:17 -69.06, -33.74 89.53 11/29/2016 02:07:26 -68.94, -32.39 89.64 55.59 69
10 11/29/2016 02:56:49 68.32, 134.56 89.74 11/29/2016 02:57:02 68.32, 134.50 89.75 2.56 13
11 11/29/2016 03:47:31 -68.21, -57.99 90.36 11/29/2016 03:46:32 -68.22, -57.99 90.36 0.84 59
12 12/01/2016 18:23:00 -68.42, 82.88 89.74 12/01/2016 18:24:04 -68.45, 82.88 89.72 2.50 64
13 12/01/2016 19:13:43 68.27,-109.61
